Winner, SD

9:24 AM CST on December 15, 2017 (GMT -0600)
Winner

Weather History for KICR - September, 2013

Change the Weather History Date:

Saturday, September 14, 2013

  Actual Average Record
Temperature  
Mean Temperature 74 °F 65 °F  
Max Temperature 85 °F 78 °F 99 °F (2015)
Min Temperature 63 °F 52 °F 33 °F (2007)
Degree Days  
Heating Degree Days 0 4  
Month to date heating degree days 0 34  
Since 1 July heating degree days 7 48  
Cooling Degree Days 9 3  
Month to date cooling degree days 160 72  
Year to date cooling degree days 951 878  
Growing Degree Days 23 (Base 50)    
Moisture  
Dew Point 56 °F    
Average Humidity 62    
Maximum Humidity 81    
Minimum Humidity 43    
Precipitation  
Precipitation 0.04 in 0.07 in 0.08 in (2017)
Month to date precipitation 0.31 0.92  
Year to date precipitation 16.30 17.92  
Sea Level Pressure  
Sea Level Pressure 29.82 in    
Wind  
Wind Speed 17 mph (SSW)    
Max Wind Speed 26 mph    
Max Gust Speed 33 mph    
Visibility 10 miles    
Events Rain    
T = Trace of Precipitation, MM = Missing Value Source: NWS Daily Summary

Daily Weather History Graph

Daily Weather History Graph

Search for Another Location

Airport or City:

Trip Planner

Search our weather history database for the weather conditions in past years. The results will help you decide how hot, cold, wet, or windy it might be!

Date:

Astronomy

Sep. 14, 2013 Rise Set
Actual Time 7:18 AM CDT 7:50 PM CDT
Civil Twilight 6:49 AM CDT 8:19 PM CDT
Nautical Twilight 6:15 AM CDT 8:53 PM CDT
Astronomical Twilight 5:40 AM CDT 9:28 PM CDT
Moon 4:39 PM CDT (9/14) 1:44 AM CDT (9/14)
Length of Visible Light 13h 30m
Length of Day
12h 32m
Waxing Gibbous, 72% of the Moon is Illuminated
Sep 14
Waxing Gibbous
Sep 19
Full
Sep 26
Last Quarter
Oct 4
New
Oct 11
First Quarter

Hourly Weather History & Observations

Time (CDT) Temp. Heat Index Dew Point Humidity Pressure Visibility Wind Dir Wind Speed Gust Speed Precip Events Conditions
12:53 AM 66.9 °F - 48.0 °F 51% 29.94 in 10.0 mi South 13.8 mph 20.7 mph N/A   Mostly Cloudy
1:53 AM 66.0 °F - 48.0 °F 52% 29.93 in 10.0 mi South 12.7 mph - N/A   Partly Cloudy
2:53 AM 66.0 °F - 48.9 °F 54% 29.91 in 10.0 mi South 16.1 mph - N/A   Overcast
3:53 AM 66.0 °F - 48.9 °F 54% 29.88 in 10.0 mi South 18.4 mph 25.3 mph N/A   Overcast
4:53 AM 66.9 °F - 48.9 °F 52% 29.86 in 10.0 mi South 15.0 mph 23.0 mph N/A   Overcast
5:53 AM 66.0 °F - 48.9 °F 54% 29.83 in 10.0 mi South 18.4 mph 26.5 mph N/A   Overcast
6:53 AM 66.0 °F - 48.9 °F 54% 29.82 in 10.0 mi South 23.0 mph 31.1 mph 0.00 in   Overcast
7:53 AM 64.0 °F - 51.1 °F 63% 29.84 in 10.0 mi South 13.8 mph - 0.00 in   Overcast
8:53 AM 64.9 °F - 51.1 °F 61% 29.83 in 10.0 mi South 19.6 mph 27.6 mph N/A   Scattered Clouds
9:53 AM 66.9 °F - 51.1 °F 57% 29.83 in 10.0 mi South 18.4 mph 27.6 mph N/A   Partly Cloudy
10:53 AM 71.1 °F - 53.1 °F 53% 29.81 in 10.0 mi SSW 20.7 mph 29.9 mph N/A   Clear
11:53 AM 77.0 °F - 55.9 °F 48% 29.78 in 10.0 mi SSW 20.7 mph 29.9 mph N/A   Partly Cloudy
12:53 PM 79.0 °F - 57.9 °F 48% 29.76 in 10.0 mi SSW 20.7 mph 27.6 mph N/A   Clear
1:53 PM 82.9 °F 82.8 °F 59.0 °F 44% 29.73 in 10.0 mi SSW 17.3 mph 26.5 mph N/A   Clear
2:53 PM 84.9 °F 84.4 °F 59.0 °F 41% 29.72 in 10.0 mi SW 18.4 mph 26.5 mph N/A   Clear
3:53 PM 84.0 °F 83.8 °F 59.0 °F 43% 29.72 in 10.0 mi SSW 18.4 mph 26.5 mph N/A   Clear
4:53 PM 84.0 °F 83.8 °F 59.0 °F 43% 29.70 in 10.0 mi South 17.3 mph - N/A   Clear
5:53 PM 84.0 °F 83.8 °F 59.0 °F 43% 29.69 in 10.0 mi SSW 17.3 mph - N/A   Partly Cloudy
6:53 PM 81.0 °F 81.3 °F 59.0 °F 47% 29.71 in 10.0 mi SSW 11.5 mph - N/A   Partly Cloudy
7:53 PM 80.1 °F 80.9 °F 60.1 °F 50% 29.73 in 10.0 mi West 12.7 mph - N/A   Mostly Cloudy
8:53 PM 77.0 °F - 60.1 °F 56% 29.77 in 10.0 mi NNW 13.8 mph - N/A   Overcast
9:53 PM 71.1 °F - 60.1 °F 68% 29.82 in 10.0 mi NNW 21.9 mph - N/A   Mostly Cloudy
10:53 PM 66.9 °F - 60.1 °F 79% 29.87 in 10.0 mi North 17.3 mph - N/A   Overcast
10:59 PM 66.2 °F - 60.8 °F 83% 29.90 in 10.0 mi North 15.0 mph - N/A   Overcast
11:39 PM 64.4 °F - 60.8 °F 88% 29.92 in 9.0 mi North 13.8 mph - 0.00 in Rain Light Rain
11:49 PM 62.6 °F - 62.6 °F 100% 29.93 in 8.0 mi North 15.0 mph - 0.00 in Rain Light Rain
11:53 PM 63.0 °F - 61.0 °F 93% 29.90 in 10.0 mi North 13.8 mph - 0.00 in Rain Light Rain